This is the latest recevied weather packets stored in our database for station/object IW1CBG-3. If no packets are shown the sender has not sent any weather packets the latest 10 day(s).
| Time | Temp. | Humidity | Pressure | Rain* | Wind** | Luminosity | Snow |
|---|---|---|---|---|---|---|---|
| 1777924669 | 11.67° C | 85% | 1029.2 hPa | 0 mm | - | - | - |
| 1777924067 | 11.11° C | 84% | 1029.6 hPa | 0 mm | - | - | - |
| 1777923468 | 11.11° C | 83% | 1029.4 hPa | 0 mm | - | - | - |
| 1777922868 | 11.11° C | 83% | 1029.1 hPa | 0 mm | - | - | - |
| 1777922267 | 11.11° C | 83% | 1029.2 hPa | 0 mm | - | - | - |
| 1777921667 | 11.67° C | 83% | 1029.2 hPa | 0 mm | - | - | - |
| 1777921068 | 12.22° C | 79% | 1028.7 hPa | 0 mm | - | - | - |
| 1777920468 | 12.22° C | 77% | 1028.7 hPa | 0 mm | - | - | - |
| 1777919867 | 12.22° C | 71% | 1028.3 hPa | 0 mm | - | - | - |
| 1777919268 | 12.78° C | 74% | 1028.4 hPa | 0 mm | - | - | - |
| 1777918667 | 12.78° C | 69% | 1028.4 hPa | 0 mm | - | - | - |
| 1777918067 | 13.89° C | 70% | 1028.3 hPa | 0 mm | - | - | - |
| 1777917468 | 13.33° C | 59% | 1028.4 hPa | 0 mm | - | - | - |
| 1777916868 | 13.33° C | 61% | 1028.3 hPa | 0 mm | - | - | - |
| 1777916268 | 13.89° C | 67% | 1028.5 hPa | 0 mm | - | - | - |
| 1777915668 | 13.33° C | 65% | 1028.1 hPa | 0 mm | - | - | - |
| 1777915067 | 13.33° C | 66% | 1027.9 hPa | 0 mm | - | - | - |
| 1777914469 | 13.33° C | 73% | 1028 hPa | 0 mm | - | - | - |
| 1777913868 | 13.33° C | 75% | 1028.3 hPa | 0 mm | - | - | - |
| 1777912668 | 13.89° C | 71% | 1028.2 hPa | 0 mm | - | - | - |
| 1777912067 | 14.44° C | 70% | 1027.8 hPa | 0 mm | - | - | - |
| 1777911468 | 13.89° C | 71% | 1027.7 hPa | 0 mm | - | - | - |
| 1777910868 | 13.89° C | 74% | 1028 hPa | 0 mm | - | - | - |
| 1777910269 | 13.89° C | 75% | 1027.9 hPa | 0 mm | - | - | - |
| 1777909668 | 14.44° C | 74% | 1028.1 hPa | 0 mm | - | - | - |
* Rain latest hour (hover to see other rain measurements)
** Current wind speed in m/s (hover to see current wind gust speed)